Temp
63 56 53 57 58 60 58 54 52 56 66 63 59 59 62 63 63 59 59 59 59 59 60 60 59 57 56 56 57 57 56 54 54 52 51 50 49 50 50 52 53 53 53 54
58 52 61 64 63 62 57 53 53 60 68 64 59 61 62 60 61 62 59 59 59 59 60 59 58 57 57 55 55 55 55 54 53 52 50 50 49 49 50 50 51 52 52 52
53 61 67 64 61 59 56 53 54 55 62 62 59 56 57 62 62 62 61 61 61 60 59 60 59 57 56 53 54 55 54 54 53 53 51 50 50 50 49 49 48 49 51 51
58 67 63 58 59 60 51 61 59 59 54 49 60 42 53 57 57 60 59 57 58 60 61 60 59 54 53 53 53 54 54 53 53 52 50 49 47 46 46 46 47 48 50 51
56 60 59 57 62 63 57 63 59 58 52 50 52 46 48 54 51 52 57 58 58 59 60 60 59 57 55 53 52 52 52 52 51 51 50 47 46 45 46 46 47 48 49 50
59 65 63 61 65 65 65 59 58 56 51 41 49 46 43 49 52 54 58 60 60 59 59 60 59 58 56 53 52 51 51 50 51 50 49 48 48 47 47 47 46 47 48 49
56 58 62 67 57 61 60 51 41 39 38 38 51 45 44 52 55 55 56 57 59 58 57 57 55 55 54 52 50 50 50 50 50 50 50 49 51 50 48 47 46 47 48 47
47 46 58 64 61 56 55 52 40 34 35 40 49 39 45 56 58 59 61 58 57 55 55 53 53 52 51 51 51 51 51 51 50 52 53 53 52 53 52 51 51 50 49 48
48 50 61 65 65 62 54 48 55 46 44 39 41 45 53 55 54 56 56 55 52 51 52 52 51 50 49 49 48 49 50 51 53 54 54 53 52 51 49 49 48 46 47 50
54 47 59 62 65 62 57 59 46 42 34 33 39 39 40 48 51 54 52 50 50 51 51 49 49 48 48 48 48 48 49 48 50 51 51 50 49 49 48 45 44 43 44 45
54 50 51 59 53 50 52 49 49 48 40 30 28 36 50 53 53 52 51 51 49 49 48 48 48 48 47 47 46 46 46 46 46 48 47 46 43 42 42 41 41 40 40 41
53 49 43 49 56 59 56 51 50 34 38 34 30 34 54 54 55 55 52 51 50 49 48 47 47 47 46 45 45 44 43 43 42 42 41 40 40 40 39 39 39 39 38 39
53 45 37 43 49 54 50 52 53 48 40 36 30 35 56 56 53 54 50 51 49 48 47 46 46 46 45 44 44 43 41 41 41 40 38 38 38 37 37 37 38 39 38 38
53 47 42 34 42 46 43 50 50 46 31 36 35 42 50 51 50 50 50 49 48 47 47 45 44 43 43 43 42 41 40 40 40 39 38 36 36 37 36 36 36 36 37 36
52 41 44 47 48 49 47 47 48 45 45 37 42 43 50 51 50 50 50 49 48 47 46 45 43 41 41 40 41 41 40 40 39 38 37 36 36 37 36 36 36 36 36 36
51 39 42 34 46 47 44 47 47 48 49 47 47 46 54 52 52 50 50 50 48 47 47 46 45 44 43 42 41 41 39 39 38 37 37 38 37 37 35 35 34 34 33 33
45 39 35 34 43 43 36 42 47 49 50 50 43 50 50 49 51 50 50 51 49 47 47 46 45 43 41 40 41 38 38 38 37 36 37 37 36 35 34 34 34 31 30 29
44 42 34 31 36 23 43 52 53 50 51 50 48 49 51 49 47 48 49 48 46 47 46 44 43 41 40 39 39 39 38 37 36 35 36 36 35 34 33 32 30 29 29 29
52 42 34 30 28 38 45 51 50 47 44 49 47 47 48 47 46 44 48 47 45 44 43 42 41 40 39 39 39 38 36 36 35 34 34 34 33 32 31 29 28 28 29 28
43 42 39 28 29 27 41 52 56 52 36 48 46 45 45 45 32 39 44 44 43 44 43 41 41 40 38 38 38 36 34 34 33 33 33 33 32 31 29 29 28 29 27 29
34 32 36 32 26 34 48 53 56 34 37 48 48 46 43 39 41 43 42 43 44 44 43 42 40 38 37 38 37 34 33 32 34 34 33 32 31 31 30 28 28 27 27 27
34 33 30 32 32 32 52 49 42 45 46 49 49 48 45 43 40 41 43 43 43 43 43 41 38 37 36 37 36 33 32 34 34 33 31 30 30 31 31 27 26 27 26 24
35 38 33 37 38 47 51 50 53 50 48 49 48 46 44 40 40 43 42 43 44 42 40 40 37 37 36 36 35 32 32 33 32 30 29 29 30 30 29 26 24 24 23 22
44 47 39 39 45 47 49 52 53 53 51 51 50 46 44 42 42 43 43 43 41 40 38 38 37 35 34 35 35 32 33 33 30 29 28 28 27 27 26 26 25 22 22 21
41 45 42 37 45 49 52 52 54 55 53 50 48 46 46 44 43 44 44 42 42 40 39 38 36 34 34 33 32 32 31 30 29 29 28 26 27 25 24 25 23 24 24 24
44 43 35 35 48 47 48 53 54 50 49 49 48 45 45 45 44 44 43 43 41 39 38 36 35 34 33 32 31 30 30 29 27 26 25 23 22 20 21 19 20 27 27 29
MSLP
1013.40 1014.36 1014.66 1014.31 1014.69 1014.39 1014.13 1013.75 1013.59 1012.93 1012.38 1012.09 1012.38 1012.30 1013.04 1013.14 1014.29 1015.93 1016.91 1017.38 1018.00 1018.26 1020.07 1021.38 1021.46 1021.23 1021.51 1021.80 1021.84 1022.10 1022.46 1022.83 1022.85 1023.14 1023.35 1023.62 1023.95 1024.12 1024.09 1023.89 1023.67 1023.54 1023.47 1023.34
1014.25 1014.12 1013.87 1013.77 1013.75 1013.90 1013.63 1013.51 1013.30 1012.76 1012.38 1012.46 1012.55 1012.96 1013.66 1013.90 1014.09 1014.98 1016.56 1017.62 1018.22 1019.61 1019.00 1020.60 1021.72 1021.32 1021.64 1022.34 1022.40 1022.55 1022.64 1022.81 1023.07 1023.17 1023.35 1023.59 1023.98 1024.32 1024.30 1024.15 1024.00 1023.87 1023.71 1023.59
1014.38 1013.58 1013.29 1013.48 1013.17 1013.30 1013.25 1013.33 1013.23 1013.34 1012.59 1012.41 1013.00 1014.09 1014.84 1014.97 1015.62 1016.48 1017.22 1017.95 1018.72 1019.02 1019.51 1020.74 1021.23 1021.45 1021.96 1022.51 1022.58 1022.55 1022.68 1022.90 1023.17 1023.32 1023.62 1024.01 1024.22 1024.49 1024.66 1024.63 1024.49 1024.26 1024.06 1023.90
1013.89 1013.00 1012.99 1012.97 1012.86 1012.83 1012.91 1012.80 1012.97 1013.33 1013.55 1013.71 1013.87 1015.83 1016.41 1016.80 1017.19 1017.74 1018.19 1018.73 1019.41 1019.74 1020.25 1020.35 1021.09 1021.64 1022.04 1022.28 1022.25 1022.40 1022.80 1022.94 1023.40 1023.52 1023.86 1024.39 1025.03 1025.30 1025.36 1025.26 1025.10 1024.73 1024.33 1024.05
1013.32 1012.93 1012.74 1012.46 1012.22 1012.30 1012.71 1012.75 1013.15 1013.54 1014.07 1014.55 1015.02 1016.32 1018.04 1018.31 1018.76 1019.20 1019.24 1019.41 1019.39 1019.69 1019.93 1020.47 1020.98 1021.34 1021.72 1022.03 1022.23 1022.66 1023.00 1023.27 1023.69 1023.89 1024.04 1024.44 1025.10 1025.29 1025.25 1025.23 1025.07 1024.74 1024.31 1024.04
1012.83 1012.43 1012.38 1011.99 1011.80 1011.96 1012.39 1012.92 1013.38 1013.89 1014.73 1015.63 1015.85 1016.62 1018.64 1018.69 1019.12 1019.52 1019.17 1019.11 1019.84 1019.97 1020.51 1020.83 1021.05 1021.35 1021.79 1022.20 1022.44 1023.01 1023.40 1023.98 1024.10 1024.18 1024.41 1024.54 1024.90 1025.15 1025.31 1025.24 1025.16 1024.91 1024.63 1024.14
1012.78 1012.00 1011.41 1011.57 1011.93 1012.00 1012.52 1013.81 1014.69 1015.45 1016.21 1016.67 1016.67 1017.37 1018.41 1018.88 1019.04 1019.00 1019.41 1020.05 1020.86 1020.84 1020.87 1021.35 1021.75 1022.03 1022.04 1022.53 1023.15 1023.77 1023.94 1024.24 1024.15 1024.41 1024.71 1024.91 1025.07 1025.20 1025.30 1025.43 1025.39 1025.08 1024.63 1024.24
1013.35 1012.52 1011.71 1011.28 1011.74 1012.33 1012.85 1014.15 1015.37 1016.34 1017.38 1017.68 1017.65 1018.51 1018.50 1018.50 1018.63 1019.32 1019.87 1020.45 1021.40 1021.76 1021.95 1022.48 1022.54 1022.68 1022.98 1022.96 1023.41 1024.07 1024.23 1024.15 1024.80 1024.91 1024.99 1025.26 1025.43 1025.49 1025.62 1025.77 1025.65 1025.52 1025.29 1024.88
1013.48 1012.90 1012.06 1011.70 1011.80 1012.28 1013.21 1014.26 1014.93 1016.41 1017.75 1018.50 1019.06 1019.26 1018.66 1018.89 1019.26 1019.90 1020.69 1021.41 1022.30 1022.43 1022.88 1023.15 1023.40 1023.68 1023.79 1024.06 1024.37 1024.49 1024.53 1025.00 1025.23 1025.36 1025.63 1025.88 1025.97 1026.03 1026.13 1026.18 1026.00 1026.03 1025.76 1025.25
1013.74 1013.65 1012.91 1012.50 1012.37 1012.79 1013.36 1014.45 1015.74 1017.33 1018.94 1019.76 1019.77 1019.56 1018.93 1019.09 1019.33 1020.12 1021.27 1022.08 1022.49 1023.01 1023.45 1023.93 1024.27 1024.58 1025.07 1025.25 1025.32 1025.23 1025.50 1025.77 1025.99 1026.15 1026.38 1026.60 1026.67 1026.68 1026.64 1026.70 1026.66 1026.51 1026.29 1025.92
1014.30 1014.48 1014.34 1013.55 1013.94 1014.12 1014.53 1015.13 1016.40 1017.70 1019.26 1020.35 1020.40 1019.59 1017.88 1018.09 1018.68 1019.75 1020.96 1021.86 1022.67 1023.30 1023.96 1024.38 1024.81 1025.38 1025.73 1025.96 1026.12 1026.29 1026.44 1026.61 1026.86 1027.04 1027.22 1027.27 1027.36 1027.34 1027.34 1027.33 1027.23 1027.08 1026.81 1026.49
1015.35 1015.65 1015.73 1015.45 1015.19 1014.79 1015.07 1015.93 1016.87 1018.62 1019.98 1020.65 1020.45 1019.12 1017.46 1017.46 1017.86 1019.27 1020.89 1022.09 1023.00 1023.50 1024.24 1024.78 1025.35 1025.69 1025.96 1026.46 1026.81 1027.02 1027.22 1027.32 1027.58 1027.71 1027.78 1027.89 1027.88 1027.82 1027.71 1027.59 1027.54 1027.31 1027.08 1026.72
1015.95 1016.58 1016.91 1016.64 1016.49 1015.87 1016.09 1016.50 1017.06 1018.48 1019.43 1020.27 1020.64 1019.13 1017.53 1017.61 1018.40 1019.32 1020.63 1022.12 1023.03 1023.76 1024.47 1025.13 1025.57 1025.89 1026.35 1026.74 1027.22 1027.55 1027.78 1027.89 1027.92 1028.02 1028.17 1028.26 1028.25 1028.11 1027.99 1027.89 1027.76 1027.43 1027.27 1027.01
1016.36 1017.08 1017.49 1017.97 1017.69 1017.47 1017.26 1017.21 1017.65 1018.41 1019.65 1019.99 1019.44 1018.66 1018.02 1018.36 1018.90 1019.86 1020.93 1021.92 1022.95 1023.72 1024.54 1025.19 1025.66 1026.15 1026.57 1027.06 1027.51 1027.78 1028.05 1028.05 1028.15 1028.25 1028.46 1028.67 1028.63 1028.41 1028.23 1028.12 1027.86 1027.59 1027.30 1027.10
1017.19 1017.95 1018.26 1018.46 1018.47 1018.14 1017.88 1017.78 1017.91 1018.33 1018.60 1019.19 1018.40 1018.28 1017.69 1017.87 1018.62 1019.52 1020.65 1021.86 1022.83 1023.78 1024.52 1025.01 1025.60 1026.24 1026.79 1027.40 1027.66 1027.92 1028.29 1028.34 1028.45 1028.56 1028.72 1028.90 1028.75 1028.48 1028.35 1028.16 1028.04 1027.66 1027.42 1027.25
1017.76 1018.71 1019.27 1019.50 1019.21 1018.85 1018.42 1017.82 1017.64 1017.57 1017.53 1017.51 1017.60 1017.32 1016.89 1017.37 1018.60 1019.87 1020.71 1021.65 1022.56 1023.38 1024.04 1024.79 1025.47 1026.25 1026.94 1027.36 1027.69 1028.10 1028.44 1028.44 1028.53 1028.58 1028.91 1028.92 1028.68 1028.59 1028.55 1028.44 1028.13 1027.86 1027.75 1027.47
1018.74 1019.90 1020.70 1020.90 1020.20 1019.65 1018.71 1016.90 1016.75 1016.42 1016.36 1016.50 1016.86 1016.52 1017.27 1018.29 1018.91 1019.57 1020.59 1021.36 1022.09 1022.98 1023.79 1024.56 1025.32 1026.12 1026.85 1027.30 1027.66 1028.10 1028.38 1028.44 1028.68 1028.64 1028.91 1028.99 1028.82 1028.78 1028.65 1028.41 1028.26 1028.10 1027.71 1027.33
1019.08 1020.23 1021.44 1022.19 1021.45 1020.45 1017.54 1016.47 1016.06 1015.90 1015.96 1015.96 1016.24 1016.63 1017.41 1018.34 1019.30 1019.87 1020.31 1021.05 1022.16 1022.99 1023.82 1024.62 1025.36 1026.20 1026.80 1027.29 1027.66 1027.99 1028.28 1028.62 1028.81 1028.82 1029.04 1029.00 1028.92 1028.84 1028.53 1028.43 1028.38 1028.03 1027.65 1027.39
1018.51 1020.16 1022.03 1022.67 1022.27 1020.25 1017.74 1015.98 1015.43 1015.35 1015.91 1016.20 1016.62 1017.60 1018.48 1019.42 1020.01 1020.87 1021.07 1021.52 1022.16 1023.01 1023.84 1024.63 1025.29 1025.97 1026.77 1027.26 1027.60 1028.03 1028.55 1028.80 1028.93 1028.93 1029.08 1029.07 1029.01 1028.83 1028.58 1028.57 1028.34 1027.97 1027.72 1027.45
1019.23 1019.92 1021.29 1022.95 1022.47 1020.73 1017.57 1016.06 1015.17 1015.16 1016.09 1016.64 1017.16 1018.37 1019.31 1020.21 1021.31 1021.63 1021.55 1021.99 1022.79 1023.34 1024.00 1024.76 1025.36 1026.06 1026.76 1027.29 1027.56 1028.17 1028.67 1028.89 1029.03 1029.02 1029.16 1029.10 1029.01 1028.87 1028.82 1028.61 1028.33 1028.03 1027.75 1027.39
1020.01 1021.13 1021.17 1021.82 1021.48 1019.12 1017.07 1016.06 1015.42 1016.13 1016.89 1016.89 1017.65 1018.45 1019.63 1020.60 1020.67 1020.91 1021.71 1022.50 1022.92 1023.45 1024.20 1024.76 1025.40 1026.14 1026.69 1027.12 1027.51 1028.20 1028.61 1028.90 1029.01 1028.96 1029.14 1029.08 1029.07 1028.94 1028.82 1028.60 1028.26 1027.98 1027.62 1027.20
1019.38 1020.33 1020.83 1021.06 1020.75 1018.70 1015.79 1016.07 1016.14 1015.95 1016.28 1016.85 1017.74 1018.46 1019.41 1020.02 1020.75 1021.29 1021.90 1022.51 1022.95 1023.57 1024.24 1024.78 1025.59 1026.21 1026.72 1027.02 1027.40 1028.13 1028.50 1028.83 1028.88 1028.97 1029.16 1029.14 1029.19 1029.12 1028.88 1028.52 1028.14 1027.83 1027.49 1027.06
1018.39 1017.93 1018.66 1018.89 1017.76 1016.08 1015.45 1015.18 1014.86 1015.18 1015.78 1016.60 1017.31 1018.04 1018.76 1020.01 1020.81 1021.30 1021.83 1022.30 1022.86 1023.59 1024.25 1024.77 1025.50 1026.27 1026.84 1027.05 1027.33 1028.10 1028.59 1028.77 1028.79 1029.06 1029.31 1029.33 1029.24 1029.16 1028.93 1028.54 1028.19 1027.91 1027.54 1027.12
1017.12 1016.85 1017.40 1017.76 1016.43 1015.77 1014.98 1014.73 1014.71 1014.92 1015.68 1016.18 1016.63 1017.38 1018.37 1019.40 1020.13 1020.90 1021.49 1022.13 1022.73 1023.42 1024.23 1024.85 1025.55 1026.41 1026.98 1027.27 1027.68 1028.21 1028.59 1028.81 1028.78 1029.18 1029.39 1029.40 1029.34 1029.16 1029.03 1028.66 1028.27 1027.94 1027.58 1027.11
1016.42 1016.35 1016.59 1016.41 1015.62 1015.12 1014.55 1014.18 1014.41 1014.87 1015.35 1015.92 1016.48 1016.98 1017.66 1018.64 1019.54 1020.24 1021.01 1021.75 1022.39 1023.10 1023.95 1024.59 1025.41 1026.21 1026.91 1027.49 1027.97 1028.38 1028.66 1028.80 1028.89 1029.22 1029.47 1029.54 1029.49 1029.47 1029.14 1028.67 1028.26 1027.90 1027.52 1027.09
1015.88 1015.59 1015.72 1015.68 1014.66 1014.36 1014.35 1013.99 1014.25 1014.82 1015.33 1015.70 1016.29 1017.13 1017.86 1018.29 1018.97 1019.74 1020.56 1021.25 1021.99 1022.88 1023.66 1024.54 1025.28 1026.07 1026.90 1027.54 1028.03 1028.46 1028.66 1028.87 1028.97 1029.31 1029.55 1029.62 1029.64 1029.50 1029.09 1028.63 1028.20 1027.87 1027.30 1026.75
Wind_Speed
2 3 6 11 7 7 5 1 3 4 5 5 2 5 4 9 20 18 16 16 16 18 13 5 5 7 8 7 8 7 7 4 4 3 4 3 3 2 2 3 5 5 5 5
5 6 11 7 6 7 1 2 6 6 5 3 2 4 3 1 9 13 17 15 14 11 15 12 6 6 6 6 7 7 7 5 3 2 2 2 3 2 1 2 4 5 6 6
6 9 4 4 5 2 3 2 4 6 7 2 4 5 8 6 10 11 11 11 11 13 12 10 9 7 7 7 8 7 7 7 4 5 4 4 4 3 4 4 4 5 6 6
7 10 7 1 3 5 3 3 4 4 3 2 5 1 12 11 15 13 8 8 5 6 6 7 7 7 8 8 7 8 7 8 6 6 6 5 2 2 1 2 3 5 6 6
9 6 6 2 4 2 6 3 1 2 3 2 2 6 2 5 14 8 8 5 5 3 6 5 9 8 7 8 8 7 7 7 6 7 7 6 5 2 1 2 5 5 6 6
9 4 4 6 3 3 1 2 4 3 3 3 3 7 3 3 7 1 4 8 9 9 9 11 7 7 5 5 7 7 7 5 6 6 5 7 6 3 2 3 4 4 4 4
5 5 5 6 1 3 6 6 4 4 4 5 1 7 4 5 8 8 6 8 6 7 11 11 11 10 7 6 5 5 6 6 5 6 6 4 3 1 2 4 3 5 4 4
2 7 3 2 7 6 1 7 6 2 1 3 5 4 4 2 12 9 9 9 7 9 9 9 10 13 11 9 7 6 6 6 6 3 4 4 4 3 5 8 7 8 8 7
2 1 2 7 3 5 2 2 3 4 3 3 2 2 5 3 5 9 8 10 7 8 9 11 12 13 13 15 14 11 7 8 8 8 9 11 11 11 9 10 8 7 7 9
0 2 1 1 6 5 4 2 3 4 3 3 2 4 5 8 7 8 11 11 9 8 11 11 11 12 10 10 11 14 13 11 10 12 10 9 10 10 9 8 10 9 9 10
2 4 6 4 3 2 3 3 4 4 4 5 1 6 6 15 13 10 12 10 9 10 10 10 10 8 9 9 10 10 10 11 10 10 9 9 8 7 6 7 7 7 7 9
2 3 2 3 2 0 3 1 3 6 3 1 4 7 4 9 9 15 14 11 10 11 10 10 8 8 9 8 8 8 7 9 7 6 7 6 6 6 7 7 6 6 6 6
1 2 2 5 7 5 4 1 1 4 3 6 7 7 2 6 10 15 17 13 12 11 10 8 8 8 8 7 7 7 6 6 6 6 7 6 6 6 6 6 6 6 6 6
2 2 6 7 4 2 2 2 1 3 3 3 6 5 5 6 13 13 13 13 12 11 10 8 8 7 8 7 6 6 6 6 6 6 6 6 6 6 6 6 6 6 6 6
3 1 2 3 2 2 2 5 8 4 5 6 6 8 9 10 16 16 14 12 13 12 11 10 8 7 7 6 6 6 4 4 4 6 6 5 5 5 6 6 7 6 6 7
3 2 2 4 2 3 7 9 11 12 10 9 7 12 7 7 12 14 16 15 13 13 12 11 10 9 8 6 5 4 3 3 5 6 4 4 6 6 6 6 6 6 6 6
3 4 4 4 4 5 8 11 10 9 7 7 10 11 10 12 15 16 13 13 13 13 12 11 10 9 7 6 6 4 3 3 5 6 5 5 5 5 5 5 6 6 6 6
6 6 3 3 4 2 9 6 8 8 2 4 4 10 11 10 5 5 5 10 11 12 11 10 9 8 7 6 5 4 3 5 5 6 4 5 5 5 5 5 6 6 5 7
5 6 3 3 3 8 10 9 4 6 3 2 8 8 9 6 5 4 2 3 7 8 8 7 8 7 7 7 5 5 6 5 5 5 5 5 5 5 5 6 6 5 7 6
7 4 6 4 4 7 6 5 6 2 2 2 7 9 10 5 4 6 6 7 8 8 7 8 8 7 7 6 6 7 5 5 5 5 4 4 5 5 5 6 7 6 5 9
4 2 9 4 5 9 9 10 2 3 7 5 8 8 8 5 6 3 9 6 8 9 9 8 8 8 7 7 7 7 5 5 4 5 4 5 5 5 5 6 5 6 9 9
8 7 5 4 2 13 6 2 7 7 3 7 7 8 8 5 6 9 9 10 11 10 8 7 7 7 6 6 7 6 6 4 4 5 5 5 5 5 6 6 6 9 9 10
5 9 8 10 9 6 4 5 5 6 7 7 8 6 9 9 7 11 8 10 11 9 7 6 8 7 5 5 7 7 4 4 5 5 5 4 5 6 6 6 7 7 7 8
4 5 5 5 6 10 8 4 5 7 8 8 8 9 11 9 10 11 10 9 7 8 7 6 8 7 6 6 7 6 5 4 5 4 4 4 5 7 5 5 5 5 7 7
7 6 6 4 6 4 5 6 6 6 5 6 6 8 13 10 12 12 11 11 11 10 8 7 8 7 7 7 7 6 5 4 5 4 4 4 5 4 6 4 4 6 6 8
3 6 5 6 7 5 6 4 4 7 7 9 10 7 6 9 12 9 9 11 12 11 8 7 7 8 8 8 7 5 4 4 4 3 3 3 3 3 4 3 4 8 12 17
Wind_Direction
262 103 239 242 192 237 224 11 290 274 309 34 34 360 16 113 117 136 134 134 130 115 133 66 85 95 82 63 83 80 90 89 108 99 98 75 80 66 41 38 29 26 19 21
1 249 240 262 229 222 232 284 294 283 296 163 11 349 127 111 151 139 133 124 116 134 118 135 167 128 112 130 116 111 112 118 119 118 124 116 136 108 97 5 9 13 4 359
184 253 343 228 267 244 271 215 268 267 323 311 126 39 359 28 58 69 67 100 121 134 133 152 157 152 140 154 161 149 138 116 103 108 89 61 53 32 15 1 349 344 354 348
231 256 247 111 241 155 236 258 257 287 44 304 77 258 25 40 54 57 45 52 105 145 143 151 160 155 170 186 172 143 137 126 110 104 90 90 96 90 304 297 314 330 332 321
243 311 318 314 245 180 229 332 294 263 321 66 1 86 285 17 46 28 42 60 123 156 139 169 183 177 187 172 161 143 134 114 115 103 110 115 108 133 235 317 335 332 324 308
242 213 207 227 220 171 212 342 346 17 94 354 190 125 246 212 144 241 64 62 33 71 73 70 55 157 166 161 139 142 129 107 123 119 122 120 120 139 46 343 336 333 317 304
295 258 197 182 203 335 61 62 344 356 29 224 111 68 196 179 175 176 155 79 66 73 67 63 56 46 61 122 101 113 124 138 151 123 120 129 125 84 341 347 337 328 328 325
25 338 349 159 164 185 134 157 159 184 240 274 7 118 240 283 183 168 147 119 111 81 72 63 60 57 44 28 120 107 154 168 82 108 98 47 36 31 30 26 23 21 10 358
46 312 4 62 72 105 324 69 186 128 353 100 169 34 331 73 136 165 130 117 124 98 88 77 64 59 54 55 61 60 74 75 56 50 53 52 48 53 46 38 34 25 14 8
138 6 333 5 48 16 140 179 60 10 159 208 218 197 216 211 203 146 138 148 131 117 95 82 75 70 61 56 58 58 57 60 58 61 58 56 51 48 44 37 30 23 15 10
36 107 295 58 55 203 14 25 56 103 128 155 194 253 218 202 194 169 159 144 134 119 110 102 88 84 83 71 62 65 63 63 59 60 59 54 47 41 41 40 28 19 8 5
63 125 144 82 344 32 108 88 122 118 207 112 145 270 282 206 187 139 150 149 139 124 118 110 106 102 86 82 73 66 59 66 61 61 59 50 47 41 39 28 15 5 356 353
328 12 60 356 347 356 67 332 76 85 64 186 139 256 249 136 121 146 145 146 136 129 121 120 116 100 98 85 77 75 68 74 68 64 59 41 34 30 22 10 2 353 350 336
93 109 142 186 227 183 299 269 230 134 110 206 214 225 220 154 143 144 145 144 143 141 138 131 116 111 98 92 88 81 70 70 68 63 55 41 22 16 7 358 354 354 350 349
97 133 345 111 9 349 263 275 285 236 196 181 235 211 240 181 167 161 147 143 145 147 149 143 134 124 113 108 95 85 89 84 87 73 54 31 15 6 5 3 352 334 341 347
24 243 98 316 301 299 280 261 247 260 259 247 241 257 225 134 133 147 163 160 160 160 155 149 139 131 128 124 112 114 137 117 103 78 53 28 18 2 358 344 325 338 342 333
122 114 82 264 344 360 309 250 234 238 219 214 241 239 147 144 157 164 168 172 168 160 152 147 144 139 138 134 127 126 160 118 97 77 49 21 3 356 339 327 357 347 327 328
144 119 101 228 23 305 241 284 281 238 272 214 109 144 156 144 110 113 167 157 154 151 146 138 136 135 138 136 123 120 92 104 90 70 43 11 6 346 332 10 355 328 334 338
164 125 124 173 184 292 295 272 251 183 226 201 132 121 117 109 67 7 93 116 147 143 140 145 146 143 139 138 134 95 93 93 80 59 31 10 4 344 3 7 333 335 337 328
93 102 142 127 171 238 244 285 352 40 264 163 130 141 143 128 107 248 173 132 125 129 136 137 132 128 133 146 126 106 110 94 76 54 23 15 360 352 27 350 336 331 326 330
117 47 197 146 213 274 240 269 352 101 240 158 153 159 151 173 192 168 133 134 140 137 139 130 134 147 156 149 124 120 115 92 85 58 31 16 8 355 11 336 327 332 331 326
156 158 191 130 149 257 217 331 199 205 147 157 162 171 177 160 134 150 154 152 149 150 146 136 137 150 159 151 122 127 109 109 78 56 31 10 7 4 348 331 335 337 332 328
196 178 180 180 207 236 220 213 262 163 159 178 166 170 156 146 170 167 170 162 159 160 155 141 145 143 151 143 129 122 121 102 76 56 25 7 351 349 339 341 336 333 331 329
254 144 174 100 242 241 247 239 186 173 161 171 176 166 163 169 168 178 169 170 157 154 153 148 137 139 140 115 104 113 114 100 76 55 15 353 348 342 335 335 329 322 330 328
199 137 179 256 283 269 270 202 188 218 182 176 159 171 178 158 174 179 178 173 163 154 148 144 142 141 134 122 115 114 104 88 77 53 1 340 338 329 319 322 315 328 317 322
197 179 155 224 230 175 238 119 142 156 197 191 164 151 173 168 173 171 174 170 159 157 148 140 141 132 132 130 122 117 102 87 72 20 342 317 309 298 302 297 305 324 329 331